Regional Weather Roundup
Issued by NWS

Home | Current Version | Previous Version | Text Only | Print | Product List | Glossary On
Versions: 1 2 3 4 5 6 7 8 9 10 11 12 13 14 15 16 17 18 19 20 21 22 23 24 25 26 27 28 29 30 31 32 33 34 35 36 37 38 39 40 41 42 43 44 45 46 47 48 49 50
000
ASUS44 KLIX 050610
RWRLA
LOUISIANA WEATHER ROUNDUP
NATIONAL WEATHER SERVICE NEW ORLEANS LA
1200 AM CST THU MAR 05 2015

NOTE: "FAIR" INDICATES FEW OR NO CLOUDS BELOW 12,000 FEET WITH NO
      SIGNIFICANT WEATHER AND/OR OBSTRUCTIONS TO VISIBILITY.
      SKY/WX - SKY CONDITION AND SIGNIFICANT WEATHER.
      TMP - AIR TEMPERATURE.    DP   - DEWPOINT TEMPERATURE.
      RH  - RELATIVE HUMIDITY.  PRES - PRESSURE.
      HX  - HEAT INDEX.         WCI  - WIND CHILL INDEX.

*  THESE STATIONS ARE NOT NWS OR FAA STATIONS AND ARE NOT UNDER
   NWS QUALITY CONTROL.

LAZ040-048-061>063-065-066-069-050700-
SOUTHEAST LOUISIANA

CITY           SKY/WX    TMP DP  RH WIND       PRES   REMARKS
N.O. AUDUBON     N/A     70  70 100 MISG        N/A
6HR MIN TEMP:  68; 6HR MAX TEMP:  75;

N.O. INTL ARPT PTCLDY    70  67  90 S9        29.94S
6HR MIN TEMP:  70; 6HR MAX TEMP:  76;

N.O. LAKEFRONT PTCLDY    73  68  84 S14       29.94F
6HR MIN TEMP:  73; 6HR MAX TEMP:  77;

SLIDELL        CLOUDY    70  70 100 CALM      29.93S FOG
6HR MIN TEMP:  70; 6HR MAX TEMP:  73;

BATON ROUGE    CLOUDY    73  69  87 SW12      29.92S
6HR MIN TEMP:  73; 6HR MAX TEMP:  77; 6HR PCP: TRACE;

BOOTHVILLE     CLOUDY    71  70  96 SW3       29.97S
6HR MIN TEMP:  71; 6HR MAX TEMP:  73;

BELLE CHASSE   PTCLDY    69  66  90 S5        29.94S
6HR MIN TEMP:  69; 6HR MAX TEMP:  77;

BOGALUSA*        N/A     73  68  84 SW8       29.94S
6HR MIN TEMP:  73; 6HR MAX TEMP:  79;

GALLIANO*      CLEAR     72  69  91 S9        29.95F
6HR MIN TEMP:  72; 6HR MAX TEMP:  77;

NEW ROADS*     CLOUDY    67  63  86 NW13G20   29.92S
6HR MIN TEMP:  67; 6HR MAX TEMP:  76; 6HR PCP:  0.40;

GONZALES*      FAIR      72  72 100 S8        29.93S
6HR MIN TEMP:  72; 6HR MAX TEMP:  77; 6HR PCP:  0.01;

HAMMOND*       MOCLDY    72  68  88 S6        29.93F
HOUMA*         MOCLDY    72  69  92 S7        29.95R
6HR MIN TEMP:  72; 6HR MAX TEMP:  76;

PORT FOURCHON* PTCLDY    72  70  94 S5        29.99S FOG

$$

LAZ041-044-053-054-050700-
SOUTHWEST LOUISIANA

CITY           SKY/WX    TMP DP  RH WIND       PRES   REMARKS
LAKE CHARLES   CLOUDY    70  69  97 SW6       29.90F FOG
6HR MIN TEMP:  70; 6HR MAX TEMP:  73; 6HR PCP:  0.03;

LAFAYETTE      CLOUDY    72  69  90 SW9       29.92F
6HR MIN TEMP:  72; 6HR MAX TEMP:  75;

PATTERSON      CLEAR     70  68  94 S9        29.95R
6HR MIN TEMP:  70; 6HR MAX TEMP:  73;

SALT POINT       N/A     67  67 100 VRB6      29.93R
6HR MIN TEMP:  66; 6HR MAX TEMP:  69;

NEW IBERIA     CLOUDY    71  68  90 SW6       29.93F
6HR MIN TEMP:  71; 6HR MAX TEMP:  75;

CHENAULT AIRPK CLOUDY    70  70  98 SW9       29.91S FOG
6HR MIN TEMP:  70; 6HR MAX TEMP:  73; 6HR PCP:  0.01;


$$

LAZ027-028-050700-
CENTRAL LOUISIANA

CITY           SKY/WX    TMP DP  RH WIND       PRES   REMARKS
FORT POLK      CLOUDY    43  43 100 N15G24    29.99S FOG
ALEXANDRIA INT LGT RAIN  41  39  93 N16G25    30.02R
6HR MIN TEMP:  41; 6HR MAX TEMP:  74; 6HR PCP:  0.09;

ALEXANDRIA     LGT RAIN  42  38  85 N9        30.04R
6HR MIN TEMP:  42; 6HR MAX TEMP:  77; 6HR PCP:  0.08;


$$

LAZ001-002-050700-
NORTHWEST LOUISIANA

CITY           SKY/WX    TMP DP  RH WIND       PRES   REMARKS
SHREVEPORT     LGT RAIN  36  34  92 N13       30.14S WCI  27
6HR MIN TEMP:  36; 6HR MAX TEMP:  50; 6HR PCP:  0.18;

BARKSDALE AFB  NOT AVBL
DTN SHREVEPORT LGT RAIN  35  32  88 N13       30.14R WCI  26
6HR MIN TEMP:  35; 6HR MAX TEMP:  47; 6HR PCP:  0.22;


$$

LAZ014-016-050700-
NORTHEAST LOUISIANA

CITY           SKY/WX    TMP DP  RH WIND       PRES   REMARKS
MONROE         LGT RAIN  35  33  92 N10       30.13R WCI  27
6HR MIN TEMP:  35; 6HR MAX TEMP:  46; 6HR PCP:  0.01;

TALLULAH       LGT RAIN  36  33  89 N16G24    30.08S FOG     WCI  26
6HR MIN TEMP:  36; 6HR MAX TEMP:  45; 6HR PCP:  0.34;


$$




USA.gov is the U.S. government's official web portal to all federal, state and local government web resources and services.